Flag for U.S.A. Weather past 2 weeks in Gainesville, Florida, U.S.A.

Now
64 °F

Mostly cloudy.


Feels Like: 64 °F
Forecast: 46 / 65 °F
Wind: 8 mph from Northwest

Location: Gainesville Regional Airport

Current Time: Mar 6, 2015 at 2:43:14 AM

Latest Report: Mar 6, 2015 at 1:53 AM


Visibility: 10 mi

Pressure: 30.15 "Hg

Humidity: 94%

Dew point: 62 °F

Location of GainesvilleLocation

Historic Weather in Gainesville — Graph

°F

Gainesville temperature yesterday

Maximum temperature yesterday: 82 °F (at 1:53 PM)
Minimum temperature yesterday: 62 °F (at 2:53 AM)
Average temperature yesterday: 71 °F

Past Weeks' High & Low Weather Summary

 TemperatureHumidityPressure
High83 °F (Mar 3, 2:53 PM)100% (Feb 22, 5:53 AM)30.48 "Hg (Feb 22, 5:53 AM)
Low24 °F (Feb 20, 6:53 AM)16% (Feb 20, 3:53 PM)29.59 "Hg (Feb 26, 1:53 AM)
Average59 °F77%30.17 "Hg
* Reported Feb 19 12:53 AM — Mar 6 12:53 AM, Gainesville, Weather by CustomWeather, © 2015

Note: Actual official high and low records may vary slightly from our data, if they occured in-between our weather recording intervals... More about our weather records

Advertising

Gainesville weather history for previous 24 hours

 ConditionsComfort  
Time TempWeatherWind HumidityBarometerVisibility
12:53 AM
Fri, Mar 6
65 °FOvercast.8 mph94%30.15 "Hg10 mi
11:53 PM
Thu, Mar 5
67 °FOvercast.5 mph93%30.14 "Hg10 mi
10:53 PM67 °FMostly cloudy.No wind97%30.15 "Hg10 mi
9:53 PM67 °FPassing clouds.No wind93%30.13 "Hg10 mi
8:53 PM69 °FLight rain. Mostly cloudy.9 mph90%30.13 "Hg10 mi
7:53 PM73 °FMostly cloudy.12 mph84%30.09 "Hg10 mi
6:53 PM74 °FOvercast.10 mph79%30.07 "Hg10 mi
5:53 PM77 °FPartly sunny.12 mph69%30.05 "Hg10 mi
4:53 PM79 °FPassing clouds.14 mph62%30.04 "Hg10 mi
3:53 PM81 °FScattered clouds.15 mph58%30.03 "Hg10 mi
2:53 PM81 °FScattered clouds.15 mph56%30.03 "Hg10 mi
1:53 PM82 °FPartly sunny.15 mph53%30.06 "Hg10 mi
12:53 PM79 °FScattered clouds.14 mph56%30.08 "Hg10 mi
11:53 AM79 °FScattered clouds.16 mph60%30.11 "Hg10 mi
10:53 AM75 °FMostly cloudy.13 mph74%30.10 "Hg10 mi
9:53 AM73 °FPartly sunny.14 mph79%30.10 "Hg10 mi
8:53 AM68 °FOvercast.8 mph90%30.12 "Hg10 mi
7:53 AM65 °FPartly sunny.No wind97%30.11 "Hg8 mi
6:53 AM64 °FSunny.No wind97%30.08 "Hg10 mi
5:53 AM64 °FPassing clouds.5 mph97%30.06 "Hg9 mi
4:53 AM62 °FOvercast.No wind100%30.03 "Hg9 mi
3:53 AM62 °FClear.No wind100%30.03 "Hg7 mi
2:53 AM62 °FPassing clouds.3 mph100%30.04 "Hg8 mi
Weather by CustomWeather, © 2015

See weather overviewHow to use our weather pages